Weather History for Seward, AK

Change the Weather History Date:

Monday, October 31, 2011

  Actual Average Record
Temperature  
Mean Temperature 30 °F -  
Max Temperature 34 °F 38 °F 50 °F (2003)
Min Temperature 26 °F 28 °F 8 °F (1975)
Degree Days  
Heating Degree Days 35    
Moisture  
Dew Point 26 °F    
Average Humidity 84    
Maximum Humidity 93    
Minimum Humidity 57    
Precipitation  
Precipitation 0.21 in - - ()
Sea Level Pressure  
Sea Level Pressure 29.63 in    
Wind  
Wind Speed 5 mph (North)    
Max Wind Speed 15 mph    
Max Gust Speed 25 mph    
Visibility 5 miles    
Events Fog , Snow    
Averages and records for this station are not official NWS values.
T = Trace of Precipitation, MM = Missing Value Source: NWS Daily Summary

Daily Weather History Graph

Daily Weather History Graph

Search for Another Location

Airport:

Trip Planner

Search our weather history database for the weather conditions in past years. The results will help you decide how hot, cold, wet, or windy it might be!

Date:

Astronomy

Oct. 31, 2011 Rise Set
Actual Time 9:17 AM AKDT 6:03 PM AKDT
Civil Twilight 8:32 AM AKDT 6:48 PM AKDT
Nautical Twilight 7:43 AM AKDT 7:38 PM AKDT
Astronomical Twilight 6:54 AM AKDT 8:26 PM AKDT
Moon 3:06 PM AKDT (10/31) 10:20 PM AKDT (10/31)
Length of Visible Light 10h 16m
Length of Day
8h 45m
Waxing Crescent, 31% of the Moon is Illuminated
Oct 31
Waxing Crescent
Nov 2
First Quarter
Nov 10
Full
Nov 18
Last Quarter
Nov 24
New

Hourly Weather History & Observations

Time (AKDT) Temp. Windchill Dew Point Humidity Pressure Visibility Wind Dir Wind Speed Gust Speed Precip Events Conditions
12:53 AM 30.9 °F 22.2 °F 17.1 °F 57% 29.70 in 10.0 mi North 10.4 mph - N/A   Clear
1:53 AM 30.9 °F 21.7 °F 17.1 °F 57% 29.69 in 10.0 mi NNE 11.5 mph 17.3 mph N/A   Clear
2:53 AM 28.9 °F 21.1 °F 18.0 °F 64% 29.71 in 10.0 mi North 8.1 mph - N/A   Clear
3:53 AM 28.9 °F 19.8 °F 19.0 °F 67% 29.69 in 10.0 mi North 10.4 mph - N/A   Scattered Clouds
4:53 AM 28.9 °F 21.9 °F 19.0 °F 67% 29.67 in 10.0 mi North 6.9 mph - N/A   Overcast
5:53 AM 30.0 °F 26.5 °F 18.0 °F 61% 29.67 in 10.0 mi WNW 3.5 mph - N/A   Overcast
6:00 AM 30.2 °F - 17.6 °F 60% 29.67 in 8.0 mi Calm Calm - 0.00 in Snow Light Snow
6:13 AM 28.4 °F 24.6 °F 19.4 °F 69% 29.67 in 1.5 mi NW 3.5 mph - 0.00 in Snow Light Snow
6:21 AM 26.6 °F 22.6 °F 21.2 °F 80% 29.67 in 0.8 mi North 3.5 mph - 0.01 in Snow Light Snow
6:36 AM 26.6 °F - 24.8 °F 93% 29.67 in 0.5 mi Calm Calm - 0.03 in Fog , Snow Snow
6:53 AM 27.0 °F - 24.1 °F 89% 29.68 in 0.5 mi Calm Calm - 0.06 in Fog , Snow Snow
7:28 AM 26.6 °F 21.2 °F 24.8 °F 93% 29.67 in 1.0 mi NW 4.6 mph - 0.05 in Snow Light Snow
7:41 AM 26.6 °F 21.2 °F 24.8 °F 93% 29.67 in 1.5 mi NNW 4.6 mph - 0.06 in Snow Light Snow
7:50 AM 26.6 °F - 24.8 °F 93% 29.67 in 2.0 mi Calm Calm - 0.06 in Snow Light Snow
7:53 AM 27.0 °F 23.0 °F 25.0 °F 92% 29.68 in 2.5 mi NW 3.5 mph - 0.07 in Snow Light Snow
7:59 AM 26.6 °F 21.2 °F 24.8 °F 93% 29.67 in 3.0 mi NNW 4.6 mph - 0.00 in Snow Light Snow
8:53 AM 28.0 °F 24.2 °F 24.1 °F 85% 29.67 in 10.0 mi NNW 3.5 mph - 0.00 in   Overcast
9:53 AM 28.9 °F - 25.0 °F 85% 29.66 in 10.0 mi Calm Calm - N/A   Overcast
10:53 AM 30.0 °F 23.2 °F 25.0 °F 82% 29.65 in 10.0 mi NNW 6.9 mph - N/A   Overcast
11:53 AM 32.0 °F 28.7 °F 27.0 °F 82% 29.65 in 3.0 mi North 3.5 mph - 0.00 in Snow Light Snow
11:57 AM 32.0 °F 28.7 °F 26.6 °F 80% 29.65 in 1.8 mi North 3.5 mph - 0.00 in Snow Light Snow
12:43 PM 32.0 °F - 28.4 °F 87% 29.65 in 1.2 mi Calm Calm - 0.01 in Snow Light Snow
12:53 PM 30.9 °F - 28.0 °F 89% 29.65 in 0.8 mi Calm Calm - 0.01 in Snow Light Snow
1:07 PM 30.2 °F 26.7 °F 28.4 °F 93% 29.65 in 1.0 mi NNW 3.5 mph - 0.01 in Snow Light Snow
1:15 PM 30.2 °F - 28.4 °F 93% 29.65 in 0.8 mi Calm Calm - 0.01 in Snow Light Snow
1:38 PM 32.0 °F 28.7 °F 30.2 °F 93% 29.65 in 0.5 mi NNW 3.5 mph - 0.04 in Fog , Snow Snow
1:50 PM 32.0 °F 28.7 °F 30.2 °F 93% 29.64 in 1.0 mi NW 3.5 mph - 0.04 in Snow Light Snow
1:53 PM 32.0 °F 28.7 °F 30.0 °F 92% 29.64 in 0.8 mi NNW 3.5 mph - 0.04 in Snow Light Snow
1:56 PM 32.0 °F - 30.2 °F 93% 29.64 in 1.0 mi Calm Calm - 0.00 in Snow Light Snow
2:18 PM 32.0 °F 27.5 °F 30.2 °F 93% 29.63 in 3.0 mi NNW 4.6 mph - 0.01 in Snow Light Snow
2:53 PM 32.0 °F - 30.0 °F 92% 29.63 in 9.0 mi Calm Calm - 0.01 in   Overcast
3:40 PM 33.8 °F - 30.2 °F 87% 29.62 in 1.8 mi Calm Calm - 0.01 in Snow Light Snow
3:53 PM 33.1 °F - 30.9 °F 92% 29.62 in 1.2 mi Calm Calm - 0.01 in Snow Light Snow
4:01 PM 33.8 °F - 30.2 °F 87% 29.62 in 1.2 mi Calm Calm - 0.01 in Snow Light Snow
4:12 PM 33.8 °F - 30.2 °F 87% 29.62 in 2.0 mi Calm Calm - 0.01 in Snow Light Snow
4:22 PM 33.8 °F - 30.2 °F 87% 29.61 in 4.0 mi Calm Calm - 0.01 in Snow Light Snow
4:30 PM 33.8 °F - 30.2 °F 87% 29.61 in 6.0 mi Calm Calm - 0.01 in Snow Light Snow
4:53 PM 34.0 °F - 30.9 °F 89% 29.60 in 9.0 mi Calm Calm - 0.01 in Snow Light Snow
5:53 PM 33.1 °F 30.0 °F 30.9 °F 92% 29.59 in 10.0 mi North 3.5 mph - 0.00 in   Overcast
6:53 PM 33.1 °F - 30.9 °F 92% 29.58 in 10.0 mi Calm Calm - N/A   Overcast
7:11 PM 33.8 °F 29.6 °F 30.2 °F 87% 29.57 in 6.0 mi North 4.6 mph - 0.00 in Snow Light Snow
7:35 PM 32.0 °F 24.8 °F 30.2 °F 93% 29.56 in 10.0 mi North 8.1 mph - 0.00 in   Mostly Cloudy
7:53 PM 32.0 °F 25.6 °F 28.9 °F 88% 29.56 in 10.0 mi NNE 6.9 mph - 0.00 in   Overcast
8:09 PM 32.0 °F 27.5 °F 28.4 °F 87% 29.55 in 10.0 mi North 4.6 mph - N/A   Overcast
8:53 PM 32.0 °F 24.8 °F 27.0 °F 82% 29.55 in 10.0 mi NNE 8.1 mph - N/A   Overcast
9:53 PM 30.9 °F 20.2 °F 26.1 °F 82% 29.54 in 10.0 mi North 15.0 mph 21.9 mph N/A   Overcast
10:53 PM 30.0 °F 19.5 °F 25.0 °F 82% 29.51 in 10.0 mi NNE 13.8 mph 25.3 mph N/A   Mostly Cloudy
11:53 PM 30.0 °F 19.5 °F 24.1 °F 79% 29.48 in 10.0 mi NNE 13.8 mph 24.2 mph N/A   Overcast